Back to catalog

CZ-6A DEB

AliveSSO
NORAD 54994·DEBRIS·🇨🇳 China

Launched Nov 11, 2022 from Taiyuan Satellite Launch Center

Loading…

Next Passes (next 24 hours)

TLE

FreshSource: Space-Track

Epoch: Sep 14, 2026, 14:28 UTC

1 54994U 22151UK  26257.60309113  .00003250  00000-0  10396-2 0  9998
2 54994  98.8276 310.5424 0008244 177.5642 182.5587 14.40300994199225

Track CZ-6A DEB in real time with AllMySat

Download on the App Store